When you browse on this site, cookies collect data to enhance your experience and personalize the content and advertising you see.
Visit our Privacy Policy to learn more. By continuing to use the site, you agree to this use of cookies and data.
  • In Sweden
  • List of Countries
  • For 7 days
  • Water Temperature
  • Satellite Maps
  • Weather Map
  • Weather Widgets
  • user-avatar
    Login

    Hourly Weather Imantau

    Today, 17 June, Monday

    Time Temperature Precipitation Wind Pressure Humidity
    00:00 +8°C° 0 mm 4 mps 725 mmHg 89%
    01:00 +8°C° 0 mm 4 mps 725 mmHg 90%
    02:00 +8°C° 0 mm 4 mps 725 mmHg 90%
    03:00 +8°C° 0 mm 4 mps 724 mmHg 89%
    04:00 +8°C° 0 mm 4 mps 724 mmHg 88%
    05:00 +8°C° 0 mm 4 mps 724 mmHg 87%
    06:00 +11°C° 0 mm 4 mps 724 mmHg 83%
    07:00 +12°C° 0 mm 5 mps 724 mmHg 79%
    08:00 +14°C° 0 mm 5 mps 724 mmHg 75%
    09:00 +15°C° 0.4 mm 5 mps 724 mmHg 72%
    10:00 +15°C° 0.4 mm 5 mps 724 mmHg 68%
    11:00 +16°C° 0.4 mm 5 mps 723 mmHg 65%
    12:00 +16°C° 1 mm 5 mps 723 mmHg 67%
    13:00 +17°C° 1 mm 4 mps 723 mmHg 68%
    14:00 +17°C° 1 mm 4 mps 723 mmHg 70%
    15:00 +15°C° 0.8 mm 4 mps 723 mmHg 75%
    16:00 +14°C° 0.8 mm 4 mps 723 mmHg 81%
    17:00 +13°C° 0.8 mm 5 mps 722 mmHg 86%
    18:00 +12°C° 0.2 mm 4 mps 723 mmHg 88%
    19:00 +11°C° 0.2 mm 4 mps 723 mmHg 90%
    20:00 +10°C° 0.2 mm 3 mps 723 mmHg 92%
    21:00 +9°C° 0 mm 3 mps 723 mmHg 93%
    22:00 +8°C° 0 mm 3 mps 723 mmHg 94%
    23:00 +8°C° 0 mm 2 mps 723 mmHg 95%

    Tomorrow, 18 June, Tuesday

    Time Temperature Precipitation Wind Pressure Humidity
    00:00 +7°C° 0 mm 2 mps 723 mmHg 94%
    01:00 +7°C° 0 mm 2 mps 723 mmHg 94%
    02:00 +7°C° 0 mm 2 mps 723 mmHg 94%
    03:00 +6°C° 0 mm 2 mps 723 mmHg 94%
    04:00 +6°C° 0 mm 2 mps 724 mmHg 94%
    05:00 +6°C° 0 mm 2 mps 724 mmHg 94%
    06:00 +8°C° 0 mm 3 mps 724 mmHg 89%
    07:00 +10°C° 0 mm 3 mps 724 mmHg 84%
    08:00 +12°C° 0 mm 3 mps 724 mmHg 78%
    09:00 +13°C° 0.2 mm 4 mps 724 mmHg 73%
    10:00 +14°C° 0.2 mm 4 mps 724 mmHg 68%
    11:00 +15°C° 0.2 mm 4 mps 724 mmHg 63%
    12:00 +14°C° 0.5 mm 5 mps 724 mmHg 67%
    13:00 +14°C° 0.5 mm 6 mps 724 mmHg 70%
    14:00 +14°C° 0.5 mm 7 mps 724 mmHg 74%
    15:00 +14°C° 0.1 mm 6 mps 724 mmHg 73%
    16:00 +15°C° 0.1 mm 5 mps 724 mmHg 71%
    17:00 +15°C° 0.1 mm 4 mps 724 mmHg 70%
    18:00 +14°C° 0.3 mm 3 mps 724 mmHg 75%
    19:00 +13°C° 0.3 mm 3 mps 724 mmHg 79%
    20:00 +13°C° 0.3 mm 3 mps 724 mmHg 84%
    21:00 +12°C° 0 mm 3 mps 724 mmHg 88%
    22:00 +11°C° 0 mm 4 mps 724 mmHg 91%
    23:00 +10°C° 0 mm 4 mps 724 mmHg 95%

    Day after tomorrow, 19 June, Wednesday

    Time Temperature Precipitation Wind Pressure Humidity
    00:00 +8°C° 0 mm 4 mps 725 mmHg 96%
    01:00 +8°C° 0 mm 4 mps 725 mmHg 97%
    02:00 +8°C° 0 mm 4 mps 725 mmHg 98%
    03:00 +8°C° 0 mm 4 mps 726 mmHg 97%
    04:00 +8°C° 0 mm 4 mps 726 mmHg 97%
    05:00 +8°C° 0 mm 4 mps 726 mmHg 96%
    06:00 +8°C° 0 mm 4 mps 727 mmHg 92%
    07:00 +10°C° 0 mm 4 mps 727 mmHg 87%
    08:00 +11°C° 0 mm 4 mps 728 mmHg 83%
    09:00 +13°C° 0 mm 4 mps 728 mmHg 76%
    10:00 +14°C° 0 mm 4 mps 728 mmHg 68%
    11:00 +15°C° 0 mm 4 mps 729 mmHg 61%
    12:00 +15°C° 0 mm 4 mps 729 mmHg 60%
    13:00 +17°C° 0 mm 4 mps 729 mmHg 59%
    14:00 +17°C° 0 mm 3 mps 729 mmHg 57%
    15:00 +17°C° 0 mm 3 mps 729 mmHg 57%
    16:00 +17°C° 0 mm 3 mps 729 mmHg 57%
    17:00 +18°C° 0 mm 3 mps 730 mmHg 57%
    18:00 +17°C° 0 mm 3 mps 730 mmHg 63%
    19:00 +16°C° 0 mm 2 mps 730 mmHg 68%
    20:00 +15°C° 0 mm 2 mps 730 mmHg 73%
    21:00 +14°C° 0 mm 2 mps 730 mmHg 73%
    22:00 +13°C° 0 mm 2 mps 730 mmHg 73%
    23:00 +11°C° 0 mm 3 mps 731 mmHg 72%

    20 June, Thursday

    Time Temperature Precipitation Wind Pressure Humidity
    00:00 +11°C° 0 mm 3 mps 731 mmHg 73%
    01:00 +11°C° 0 mm 3 mps 731 mmHg 73%
    02:00 +11°C° 0 mm 3 mps 731 mmHg 73%
    03:00 +10°C° 0 mm 2 mps 731 mmHg 75%
    04:00 +10°C° 0 mm 2 mps 731 mmHg 78%
    05:00 +10°C° 0 mm 2 mps 731 mmHg 80%
    06:00 +13°C° 0 mm 2 mps 732 mmHg 77%
    07:00 +15°C° 0 mm 2 mps 732 mmHg 74%
    08:00 +16°C° 0 mm 3 mps 732 mmHg 70%
    09:00 +18°C° 0 mm 3 mps 732 mmHg 67%
    10:00 +19°C° 0 mm 3 mps 732 mmHg 64%
    11:00 +20°C° 0 mm 3 mps 733 mmHg 60%
    12:00 +20°C° 0.2 mm 3 mps 732 mmHg 60%
    13:00 +21°C° 0.2 mm 3 mps 732 mmHg 59%
    14:00 +21°C° 0.2 mm 3 mps 732 mmHg 59%
    15:00 +21°C° 0.1 mm 3 mps 732 mmHg 58%
    16:00 +21°C° 0.1 mm 3 mps 732 mmHg 58%
    17:00 +21°C° 0.1 mm 2 mps 732 mmHg 58%
    18:00 +20°C° 0 mm 2 mps 732 mmHg 61%
    19:00 +20°C° 0 mm 1 mps 732 mmHg 65%
    20:00 +19°C° 0 mm 1 mps 732 mmHg 69%
    21:00 +18°C° 0 mm 1 mps 732 mmHg 71%
    22:00 +16°C° 0 mm 2 mps 731 mmHg 73%
    23:00 +14°C° 0 mm 3 mps 731 mmHg 75%

    21 June, Friday

    Time Temperature Precipitation Wind Pressure Humidity
    00:00 +14°C° 0 mm 3 mps 731 mmHg 76%
    01:00 +13°C° 0 mm 3 mps 731 mmHg 77%
    02:00 +13°C° 0 mm 4 mps 731 mmHg 78%
    03:00 +13°C° 0 mm 3 mps 731 mmHg 77%
    04:00 +12°C° 0 mm 3 mps 731 mmHg 77%
    05:00 +12°C° 0 mm 3 mps 731 mmHg 76%
    06:00 +14°C° 0 mm 4 mps 731 mmHg 73%
    07:00 +17°C° 0 mm 4 mps 731 mmHg 69%
    08:00 +19°C° 0 mm 4 mps 731 mmHg 65%
    09:00 +20°C° 0 mm 5 mps 731 mmHg 61%
    10:00 +21°C° 0 mm 5 mps 731 mmHg 56%
    11:00 +23°C° 0 mm 5 mps 731 mmHg 52%
    12:00 +23°C° 0 mm 5 mps 730 mmHg 52%
    13:00 +23°C° 0 mm 5 mps 730 mmHg 51%
    14:00 +23°C° 0 mm 5 mps 730 mmHg 51%
    15:00 +25°C° 0 mm 5 mps 730 mmHg 51%
    16:00 +25°C° 0 mm 5 mps 730 mmHg 51%
    17:00 +25°C° 0 mm 4 mps 729 mmHg 52%
    18:00 +22°C° 0.4 mm 4 mps 729 mmHg 62%
    19:00 +20°C° 0.4 mm 5 mps 729 mmHg 72%
    20:00 +17°C° 0.4 mm 5 mps 729 mmHg 83%
    21:00 +17°C° 0.3 mm 4 mps 729 mmHg 85%
    22:00 +16°C° 0.3 mm 3 mps 729 mmHg 88%
    23:00 +15°C° 0.3 mm 2 mps 729 mmHg 91%

    22 June, Saturday

    Time Temperature Precipitation Wind Pressure Humidity
    00:00 +14°C° 0 mm 2 mps 729 mmHg 92%
    01:00 +14°C° 0 mm 2 mps 729 mmHg 93%
    02:00 +12°C° 0 mm 3 mps 729 mmHg 93%
    03:00 +12°C° 0 mm 3 mps 730 mmHg 94%
    04:00 +11°C° 0 mm 3 mps 730 mmHg 95%
    05:00 +11°C° 0 mm 3 mps 731 mmHg 96%
    06:00 +12°C° 0 mm 3 mps 731 mmHg 92%
    07:00 +13°C° 0 mm 4 mps 731 mmHg 89%
    08:00 +14°C° 0 mm 4 mps 732 mmHg 85%
    09:00 +15°C° 0 mm 4 mps 732 mmHg 79%
    10:00 +16°C° 0 mm 5 mps 732 mmHg 73%
    11:00 +17°C° 0 mm 5 mps 733 mmHg 67%
    12:00 +19°C° 0 mm 5 mps 733 mmHg 64%
    13:00 +19°C° 0 mm 5 mps 733 mmHg 62%
    14:00 +20°C° 0 mm 5 mps 733 mmHg 59%
    15:00 +20°C° 0 mm 5 mps 733 mmHg 59%
    16:00 +20°C° 0 mm 5 mps 733 mmHg 59%
    17:00 +20°C° 0 mm 5 mps 733 mmHg 59%
    18:00 +19°C° 0 mm 3 mps 733 mmHg 63%
    19:00 +18°C° 0 mm 2 mps 733 mmHg 68%
    20:00 +18°C° 0 mm 1 mps 733 mmHg 73%
    21:00 +16°C° 0 mm 1 mps 733 mmHg 74%
    22:00 +15°C° 0 mm 1 mps 733 mmHg 74%
    23:00 +14°C° 0 mm 2 mps 733 mmHg 75%
    Show more